{"data":{"norad_id":62255,"intl_designator":"2024-232U","name":"QIANFAN-54","alt_names":[],"object_type":"PAYLOAD","status":"ACTIVE","operator":null,"country":"PRC","launch_date":"2024-12-05","launch_site_code":"TAISC","launch_vehicle":null,"mission":null,"orbit_class":"UNKNOWN","rcs_meters":null,"size_class":null,"mass_kg":null,"dimensions":null,"purposes":[],"wikipedia_slug":null,"has_3d_model":false,"image_url":null,"decayed_at":null,"tle_current":{"epoch":"2026-09-22T20:31:23.572416Z","epoch_age_seconds":106377,"freshness":"FRESH","line1":"1 62255U 24232U   26265.85513394  .00000093  00000+0  12479-3 0  9999","line2":"2 62255  89.0160  12.3711 0003969 121.3486 238.8054 13.51030058137774","mean_motion":13.51030058,"eccentricity":0.0003969,"inclination_deg":89.016,"raan_deg":12.3711,"arg_perigee_deg":121.3486,"mean_anomaly_deg":238.8054,"bstar":0.00012479,"rev_number":13777,"period_min":106.58534141955,"perigee_km":1065.5155752962,"apogee_km":1071.4266928331,"semimajor_km":7446.6081340647,"source":"CELESTRAK","updated_at":"2026-09-23T09:00:21.337839Z"}}}